QPF
0.03 0.03 0.03 0.03 0.03 0.03 0.04 0.03 0.03 0.02 0.02 0.02 0.02 0.02 0.02 0.01 0.02 0.02 0.02 0.01 0.01 0.01 0.00 0.00 0.00 0.00 0.00 0.00 0.00 0.01 0.01 0.03 0.04 0.03 0.02 0.03 0.03 0.03 0.03 0.04 0.04 0.06 0.06
0.02 0.02 0.02 0.02 0.02 0.02 0.03 0.03 0.02 0.02 0.02 0.02 0.02 0.02 0.02 0.01 0.01 0.01 0.01 0.01 0.01 0.01 0.00 0.00 0.00 0.00 0.00 0.00 0.00 0.01 0.01 0.01 0.03 0.03 0.03 0.02 0.03 0.02 0.02 0.02 0.03 0.04 0.05
0.03 0.03 0.03 0.02 0.02 0.03 0.03 0.02 0.02 0.02 0.02 0.02 0.01 0.01 0.01 0.01 0.01 0.01 0.01 0.01 0.00 0.00 0.00 0.00 0.00 0.00 0.00 0.00 0.00 0.00 0.00 0.01 0.02 0.03 0.04 0.03 0.02 0.03 0.02 0.02 0.02 0.03 0.04
0.03 0.03 0.03 0.03 0.03 0.03 0.02 0.02 0.02 0.02 0.02 0.02 0.01 0.01 0.01 0.00 0.00 0.00 0.00 0.00 0.00 0.00 0.00 0.00 0.00 0.00 0.00 0.00 0.00 0.00 0.00 0.01 0.01 0.02 0.03 0.04 0.03 0.03 0.02 0.02 0.02 0.02 0.02
0.02 0.03 0.03 0.03 0.03 0.03 0.02 0.02 0.02 0.02 0.02 0.01 0.01 0.01 0.00 0.00 0.00 0.00 0.00 0.00 0.00 0.00 0.00 0.00 0.00 0.00 0.00 0.00 0.01 0.01 0.01 0.01 0.01 0.02 0.02 0.04 0.05 0.04 0.03 0.02 0.02 0.02 0.01
0.03 0.03 0.03 0.02 0.02 0.02 0.03 0.03 0.02 0.02 0.02 0.02 0.01 0.01 0.01 0.00 0.01 0.01 0.01 0.00 0.00 0.00 0.00 0.00 0.00 0.00 0.00 0.00 0.00 0.01 0.01 0.01 0.01 0.02 0.02 0.02 0.04 0.05 0.05 0.03 0.02 0.02 0.02
0.03 0.03 0.03 0.02 0.02 0.03 0.03 0.03 0.02 0.02 0.02 0.02 0.01 0.01 0.01 0.01 0.01 0.01 0.01 0.00 0.00 0.00 0.00 0.01 0.01 0.00 0.00 0.00 0.00 0.00 0.01 0.01 0.01 0.01 0.02 0.02 0.03 0.04 0.06 0.06 0.04 0.02 0.02
0.02 0.02 0.02 0.02 0.03 0.03 0.03 0.03 0.03 0.02 0.02 0.02 0.01 0.01 0.01 0.01 0.01 0.01 0.01 0.01 0.01 0.00 0.00 0.00 0.01 0.01 0.01 0.01 0.01 0.01 0.01 0.01 0.01 0.01 0.01 0.02 0.02 0.03 0.05 0.07 0.06 0.05 0.02
0.02 0.02 0.02 0.02 0.02 0.02 0.02 0.02 0.03 0.03 0.03 0.02 0.01 0.01 0.01 0.01 0.01 0.01 0.01 0.01 0.01 0.01 0.00 0.00 0.00 0.01 0.01 0.01 0.01 0.01 0.01 0.01 0.01 0.01 0.01 0.01 0.01 0.02 0.03 0.05 0.05 0.06 0.05
0.02 0.02 0.02 0.02 0.02 0.02 0.02 0.02 0.02 0.03 0.03 0.02 0.02 0.01 0.00 0.00 0.01 0.01 0.01 0.01 0.01 0.01 0.01 0.00 0.00 0.01 0.01 0.01 0.01 0.01 0.01 0.01 0.01 0.00 0.00 0.00 0.00 0.01 0.01 0.03 0.05 0.06 0.05
0.02 0.02 0.02 0.02 0.02 0.02 0.02 0.02 0.02 0.02 0.02 0.02 0.02 0.01 0.01 0.00 0.01 0.01 0.01 0.01 0.01 0.01 0.01 0.00 0.00 0.00 0.01 0.01 0.01 0.01 0.01 0.01 0.01 0.01 0.00 0.00 0.00 0.00 0.01 0.01 0.03 0.05 0.05
0.02 0.02 0.02 0.02 0.02 0.02 0.02 0.02 0.02 0.02 0.02 0.02 0.02 0.01 0.01 0.01 0.01 0.01 0.01 0.01 0.01 0.01 0.01 0.00 0.00 0.00 0.01 0.01 0.01 0.01 0.01 0.01 0.01 0.01 0.01 0.01 0.01 0.01 0.01 0.01 0.01 0.02 0.02
0.02 0.02 0.02 0.02 0.02 0.02 0.02 0.02 0.02 0.02 0.02 0.02 0.01 0.01 0.01 0.01 0.01 0.01 0.01 0.01 0.02 0.02 0.01 0.01 0.01 0.01 0.01 0.00 0.00 0.01 0.01 0.01 0.01 0.01 0.01 0.01 0.01 0.01 0.01 0.01 0.01 0.01 0.01
0.02 0.02 0.02 0.03 0.03 0.03 0.02 0.02 0.02 0.02 0.01 0.01 0.01 0.01 0.01 0.01 0.01 0.01 0.01 0.01 0.01 0.02 0.02 0.01 0.01 0.01 0.01 0.01 0.00 0.00 0.00 0.00 0.01 0.01 0.01 0.01 0.01 0.01 0.01 0.01 0.01 0.01 0.02
0.03 0.03 0.03 0.03 0.03 0.03 0.03 0.02 0.02 0.01 0.01 0.01 0.01 0.02 0.01 0.01 0.01 0.01 0.02 0.02 0.02 0.02 0.02 0.01 0.01 0.01 0.01 0.01 0.01 0.01 0.00 0.00 0.00 0.00 0.01 0.01 0.01 0.01 0.01 0.01 0.01 0.01 0.01
0.03 0.03 0.03 0.03 0.03 0.03 0.03 0.03 0.02 0.02 0.01 0.01 0.01 0.01 0.01 0.01 0.01 0.02 0.02 0.02 0.02 0.02 0.03 0.02 0.01 0.01 0.01 0.00 0.00 0.00 0.00 0.00 0.00 0.00 0.00 0.00 0.01 0.01 0.01 0.01 0.01 0.02 0.02
0.03 0.03 0.03 0.03 0.03 0.03 0.03 0.02 0.02 0.02 0.02 0.01 0.01 0.01 0.01 0.01 0.02 0.02 0.02 0.02 0.02 0.02 0.02 0.02 0.01 0.01 0.01 0.00 0.00 0.00 0.00 0.00 0.00 0.00 0.01 0.00 0.01 0.01 0.01 0.01 0.01 0.02 0.02
0.03 0.04 0.03 0.03 0.03 0.03 0.02 0.02 0.02 0.01 0.01 0.01 0.01 0.02 0.02 0.02 0.02 0.02 0.02 0.02 0.02 0.01 0.01 0.01 0.01 0.01 0.01 0.00 0.01 0.00 0.00 0.00 0.00 0.00 0.01 0.01 0.01 0.01 0.01 0.01 0.01 0.01 0.02
0.03 0.04 0.04 0.04 0.03 0.03 0.02 0.02 0.02 0.02 0.01 0.01 0.01 0.02 0.02 0.02 0.02 0.02 0.02 0.02 0.01 0.01 0.01 0.01 0.01 0.01 0.00 0.00 0.00 0.01 0.01 0.01 0.01 0.01 0.01 0.01 0.01 0.01 0.01 0.01 0.01 0.01 0.01
0.02 0.03 0.03 0.03 0.03 0.03 0.02 0.02 0.02 0.02 0.01 0.01 0.01 0.01 0.02 0.02 0.02 0.02 0.01 0.01 0.01 0.01 0.01 0.01 0.01 0.00 0.00 0.00 0.00 0.00 0.00 0.01 0.01 0.01 0.01 0.01 0.01 0.01 0.01 0.01 0.01 0.01 0.01
0.02 0.02 0.03 0.03 0.02 0.02 0.02 0.02 0.02 0.02 0.01 0.01 0.02 0.01 0.02 0.02 0.01 0.01 0.01 0.01 0.01 0.01 0.01 0.01 0.00 0.00 0.01 0.01 0.01 0.01 0.01 0.01 0.01 0.01 0.01 0.01 0.01 0.01 0.01 0.01 0.01 0.01 0.01
0.01 0.02 0.02 0.02 0.02 0.02 0.02 0.02 0.02 0.01 0.01 0.01 0.02 0.02 0.01 0.01 0.01 0.01 0.01 0.01 0.01 0.01 0.01 0.01 0.01 0.00 0.01 0.01 0.01 0.01 0.01 0.01 0.01 0.01 0.01 0.01 0.01 0.01 0.01 0.01 0.01 0.02 0.02
0.01 0.01 0.02 0.02 0.02 0.02 0.02 0.01 0.01 0.01 0.01 0.01 0.01 0.01 0.01 0.01 0.01 0.01 0.01 0.01 0.01 0.01 0.00 0.01 0.01 0.00 0.00 0.00 0.01 0.01 0.01 0.01 0.01 0.01 0.02 0.01 0.01 0.01 0.01 0.01 0.01 0.01 0.01
0.01 0.02 0.02 0.02 0.02 0.02 0.01 0.01 0.01 0.01 0.01 0.01 0.01 0.01 0.01 0.01 0.01 0.01 0.01 0.01 0.00 0.00 0.00 0.00 0.00 0.00 0.00 0.00 0.00 0.01 0.01 0.01 0.01 0.02 0.02 0.02 0.02 0.01 0.01 0.01 0.01 0.01 0.01
0.02 0.02 0.02 0.02 0.02 0.02 0.01 0.01 0.01 0.01 0.01 0.01 0.01 0.01 0.01 0.01 0.01 0.01 0.00 0.00 0.00 0.00 0.00 0.00 0.00 0.00 0.00 0.00 0.00 0.00 0.01 0.01 0.02 0.02 0.03 0.03 0.02 0.01 0.01 0.01 0.01 0.01 0.01
0.02 0.02 0.02 0.02 0.02 0.02 0.01 0.01 0.01 0.01 0.01 0.01 0.01 0.01 0.01 0.00 0.00 0.00 0.00 0.00 0.00 0.00 0.00 0.00 0.00 0.00 0.00 0.00 0.00 0.00 0.01 0.01 0.01 0.02 0.03 0.03 0.02 0.01 0.01 0.01 0.01 0.01 0.01
MSLP
1010.93 1011.15 1011.57 1012.17 1012.94 1013.86 1014.88 1015.96 1017.03 1018.06 1019.00 1019.82 1020.51 1021.10 1021.59 1022.03 1022.45 1022.87 1023.30 1023.76 1024.23 1024.71 1025.17 1025.60 1026.00 1026.36 1026.70 1027.02 1027.35 1027.69 1028.05 1028.42 1028.80 1029.16 1029.50 1029.79 1030.03 1030.23 1030.38 1030.51 1030.63 1030.74 1030.88
1011.27 1011.33 1011.58 1012.00 1012.61 1013.38 1014.26 1015.23 1016.22 1017.20 1018.12 1018.96 1019.69 1020.33 1020.89 1021.40 1021.88 1022.34 1022.81 1023.28 1023.75 1024.20 1024.64 1025.05 1025.43 1025.78 1026.13 1026.47 1026.84 1027.22 1027.63 1028.06 1028.48 1028.89 1029.27 1029.59 1029.85 1030.06 1030.23 1030.37 1030.49 1030.62 1030.76
1011.94 1011.85 1011.92 1012.17 1012.59 1013.17 1013.87 1014.68 1015.54 1016.42 1017.27 1018.08 1018.81 1019.48 1020.09 1020.65 1021.19 1021.70 1022.21 1022.70 1023.18 1023.63 1024.06 1024.46 1024.83 1025.20 1025.56 1025.94 1026.34 1026.77 1027.23 1027.70 1028.17 1028.61 1029.00 1029.34 1029.61 1029.83 1030.00 1030.15 1030.29 1030.43 1030.59
1012.92 1012.67 1012.58 1012.65 1012.87 1013.25 1013.76 1014.37 1015.05 1015.78 1016.52 1017.25 1017.95 1018.61 1019.24 1019.85 1020.43 1020.99 1021.53 1022.06 1022.55 1023.01 1023.44 1023.85 1024.23 1024.61 1024.99 1025.40 1025.84 1026.31 1026.80 1027.30 1027.79 1028.24 1028.64 1028.97 1029.25 1029.47 1029.65 1029.81 1029.97 1030.14 1030.33
1014.11 1013.75 1013.51 1013.41 1013.45 1013.62 1013.91 1014.31 1014.80 1015.34 1015.93 1016.55 1017.17 1017.80 1018.43 1019.05 1019.66 1020.27 1020.85 1021.40 1021.91 1022.39 1022.82 1023.23 1023.62 1024.01 1024.42 1024.85 1025.31 1025.80 1026.31 1026.82 1027.30 1027.75 1028.14 1028.47 1028.74 1028.97 1029.16 1029.35 1029.54 1029.75 1029.98
1015.43 1014.97 1014.61 1014.37 1014.24 1014.23 1014.32 1014.50 1014.78 1015.13 1015.55 1016.03 1016.55 1017.12 1017.72 1018.34 1018.96 1019.59 1020.19 1020.76 1021.29 1021.77 1022.22 1022.63 1023.02 1023.42 1023.83 1024.26 1024.73 1025.22 1025.73 1026.23 1026.70 1027.14 1027.52 1027.84 1028.11 1028.35 1028.58 1028.80 1029.05 1029.31 1029.59
1016.77 1016.24 1015.80 1015.45 1015.19 1015.01 1014.92 1014.91 1014.99 1015.16 1015.40 1015.73 1016.15 1016.63 1017.17 1017.76 1018.37 1019.00 1019.61 1020.18 1020.72 1021.20 1021.64 1022.04 1022.43 1022.81 1023.22 1023.64 1024.10 1024.58 1025.07 1025.56 1026.02 1026.44 1026.81 1027.14 1027.44 1027.71 1027.98 1028.26 1028.56 1028.88 1029.22
1018.06 1017.50 1017.01 1016.58 1016.21 1015.91 1015.68 1015.51 1015.42 1015.42 1015.50 1015.69 1015.98 1016.36 1016.83 1017.36 1017.94 1018.53 1019.12 1019.68 1020.20 1020.67 1021.09 1021.47 1021.84 1022.21 1022.59 1023.00 1023.44 1023.91 1024.39 1024.86 1025.31 1025.73 1026.12 1026.47 1026.80 1027.13 1027.45 1027.80 1028.17 1028.56 1028.95
1019.26 1018.69 1018.17 1017.70 1017.27 1016.89 1016.55 1016.26 1016.03 1015.88 1015.83 1015.88 1016.04 1016.32 1016.69 1017.15 1017.66 1018.20 1018.74 1019.26 1019.74 1020.18 1020.57 1020.93 1021.27 1021.62 1021.98 1022.38 1022.81 1023.26 1023.73 1024.21 1024.67 1025.11 1025.53 1025.93 1026.31 1026.70 1027.09 1027.51 1027.95 1028.40 1028.85
1020.37 1019.81 1019.29 1018.80 1018.34 1017.91 1017.50 1017.12 1016.79 1016.53 1016.36 1016.29 1016.33 1016.49 1016.76 1017.12 1017.54 1018.00 1018.47 1018.93 1019.35 1019.74 1020.09 1020.42 1020.74 1021.07 1021.43 1021.82 1022.25 1022.71 1023.19 1023.69 1024.18 1024.65 1025.12 1025.57 1026.02 1026.47 1026.94 1027.42 1027.92 1028.42 1028.90
1021.43 1020.88 1020.37 1019.88 1019.41 1018.95 1018.50 1018.07 1017.67 1017.32 1017.05 1016.88 1016.81 1016.85 1017.01 1017.25 1017.57 1017.93 1018.31 1018.69 1019.04 1019.38 1019.69 1019.99 1020.30 1020.63 1020.99 1021.39 1021.84 1022.32 1022.83 1023.36 1023.89 1024.42 1024.93 1025.44 1025.95 1026.46 1026.99 1027.52 1028.06 1028.58 1029.07
1022.45 1021.92 1021.43 1020.95 1020.49 1020.02 1019.55 1019.08 1018.64 1018.23 1017.88 1017.61 1017.44 1017.38 1017.41 1017.54 1017.74 1017.99 1018.27 1018.56 1018.84 1019.13 1019.41 1019.69 1020.00 1020.34 1020.72 1021.15 1021.63 1022.15 1022.70 1023.27 1023.84 1024.41 1024.97 1025.52 1026.07 1026.63 1027.18 1027.74 1028.29 1028.81 1029.30
1023.46 1022.95 1022.47 1022.01 1021.55 1021.09 1020.61 1020.13 1019.66 1019.20 1018.80 1018.46 1018.20 1018.03 1017.95 1017.96 1018.04 1018.18 1018.36 1018.56 1018.79 1019.02 1019.28 1019.56 1019.88 1020.24 1020.66 1021.13 1021.65 1022.21 1022.80 1023.40 1024.00 1024.60 1025.18 1025.76 1026.33 1026.89 1027.44 1027.99 1028.53 1029.03 1029.49
1024.42 1023.94 1023.48 1023.04 1022.60 1022.14 1021.67 1021.18 1020.69 1020.21 1019.76 1019.36 1019.03 1018.77 1018.59 1018.49 1018.46 1018.50 1018.59 1018.72 1018.89 1019.10 1019.34 1019.63 1019.97 1020.37 1020.82 1021.33 1021.88 1022.48 1023.09 1023.71 1024.32 1024.93 1025.51 1026.08 1026.63 1027.17 1027.69 1028.21 1028.70 1029.17 1029.58
1025.31 1024.85 1024.42 1024.00 1023.57 1023.13 1022.67 1022.19 1021.70 1021.20 1020.73 1020.28 1019.89 1019.56 1019.30 1019.11 1019.00 1018.95 1018.96 1019.03 1019.16 1019.35 1019.59 1019.89 1020.25 1020.68 1021.16 1021.70 1022.28 1022.88 1023.50 1024.12 1024.72 1025.30 1025.85 1026.39 1026.89 1027.39 1027.87 1028.33 1028.77 1029.18 1029.55
1026.05 1025.63 1025.23 1024.84 1024.44 1024.02 1023.58 1023.11 1022.63 1022.13 1021.64 1021.18 1020.75 1020.37 1020.05 1019.79 1019.61 1019.50 1019.46 1019.49 1019.59 1019.75 1019.99 1020.30 1020.68 1021.12 1021.62 1022.16 1022.74 1023.34 1023.94 1024.53 1025.09 1025.63 1026.14 1026.61 1027.07 1027.51 1027.93 1028.34 1028.73 1029.09 1029.40
1026.60 1026.23 1025.87 1025.51 1025.14 1024.76 1024.34 1023.90 1023.44 1022.95 1022.47 1022.00 1021.55 1021.15 1020.79 1020.50 1020.27 1020.12 1020.04 1020.03 1020.11 1020.26 1020.49 1020.79 1021.16 1021.60 1022.09 1022.62 1023.18 1023.74 1024.30 1024.84 1025.36 1025.84 1026.29 1026.72 1027.12 1027.51 1027.89 1028.26 1028.60 1028.92 1029.21
1026.93 1026.61 1026.30 1025.98 1025.65 1025.30 1024.93 1024.52 1024.09 1023.63 1023.17 1022.71 1022.27 1021.86 1021.50 1021.19 1020.94 1020.75 1020.65 1020.62 1020.67 1020.80 1021.01 1021.29 1021.64 1022.05 1022.50 1022.99 1023.49 1024.00 1024.51 1024.99 1025.45 1025.89 1026.30 1026.69 1027.06 1027.42 1027.77 1028.12 1028.45 1028.75 1029.01
1027.02 1026.76 1026.49 1026.23 1025.94 1025.64 1025.30 1024.94 1024.55 1024.14 1023.71 1023.28 1022.87 1022.48 1022.12 1021.81 1021.55 1021.36 1021.24 1021.19 1021.22 1021.32 1021.49 1021.73 1022.03 1022.39 1022.78 1023.20 1023.64 1024.09 1024.53 1024.95 1025.37 1025.77 1026.15 1026.52 1026.89 1027.25 1027.61 1027.96 1028.29 1028.59 1028.84
1026.90 1026.68 1026.46 1026.24 1026.00 1025.74 1025.46 1025.14 1024.80 1024.44 1024.06 1023.68 1023.30 1022.95 1022.61 1022.32 1022.08 1021.89 1021.76 1021.69 1021.69 1021.76 1021.89 1022.07 1022.31 1022.59 1022.90 1023.25 1023.61 1023.98 1024.36 1024.74 1025.12 1025.50 1025.88 1026.26 1026.65 1027.04 1027.42 1027.80 1028.15 1028.46 1028.71
1026.59 1026.40 1026.22 1026.03 1025.84 1025.62 1025.38 1025.12 1024.83 1024.52 1024.20 1023.87 1023.55 1023.23 1022.94 1022.68 1022.46 1022.28 1022.15 1022.07 1022.05 1022.08 1022.16 1022.28 1022.45 1022.65 1022.89 1023.15 1023.43 1023.74 1024.06 1024.40 1024.76 1025.13 1025.52 1025.93 1026.35 1026.78 1027.20 1027.61 1027.99 1028.31 1028.56
1026.13 1025.96 1025.80 1025.64 1025.47 1025.29 1025.09 1024.88 1024.64 1024.38 1024.11 1023.84 1023.56 1023.30 1023.05 1022.83 1022.64 1022.49 1022.37 1022.29 1022.25 1022.25 1022.29 1022.36 1022.46 1022.60 1022.76 1022.95 1023.16 1023.41 1023.68 1023.99 1024.33 1024.70 1025.11 1025.54 1026.00 1026.47 1026.93 1027.36 1027.76 1028.09 1028.34
1025.57 1025.39 1025.24 1025.09 1024.94 1024.78 1024.61 1024.42 1024.22 1024.01 1023.78 1023.55 1023.32 1023.11 1022.91 1022.73 1022.58 1022.45 1022.36 1022.29 1022.26 1022.25 1022.26 1022.30 1022.36 1022.44 1022.55 1022.68 1022.85 1023.05 1023.29 1023.57 1023.89 1024.27 1024.68 1025.13 1025.60 1026.08 1026.56 1027.01 1027.40 1027.72 1027.95
1024.95 1024.76 1024.60 1024.44 1024.29 1024.14 1023.97 1023.80 1023.61 1023.42 1023.22 1023.02 1022.83 1022.65 1022.49 1022.35 1022.24 1022.15 1022.09 1022.06 1022.04 1022.05 1022.06 1022.10 1022.14 1022.21 1022.29 1022.39 1022.53 1022.69 1022.91 1023.16 1023.47 1023.83 1024.23 1024.67 1025.13 1025.60 1026.06 1026.49 1026.86 1027.15 1027.34
1024.33 1024.12 1023.94 1023.76 1023.60 1023.43 1023.25 1023.07 1022.87 1022.67 1022.48 1022.28 1022.10 1021.95 1021.81 1021.70 1021.63 1021.58 1021.56 1021.56 1021.59 1021.63 1021.68 1021.74 1021.80 1021.88 1021.96 1022.06 1022.19 1022.34 1022.54 1022.77 1023.05 1023.38 1023.75 1024.15 1024.57 1025.00 1025.42 1025.80 1026.12 1026.36 1026.50
1023.76 1023.53 1023.32 1023.12 1022.93 1022.72 1022.51 1022.29 1022.07 1021.84 1021.61 1021.40 1021.21 1021.04 1020.91 1020.82 1020.77 1020.76 1020.78 1020.83 1020.90 1021.00 1021.10 1021.21 1021.32 1021.43 1021.55 1021.67 1021.81 1021.96 1022.14 1022.36 1022.60 1022.89 1023.20 1023.55 1023.91 1024.27 1024.61 1024.93 1025.18 1025.36 1025.45
Thickness
5455 5453 5451 5449 5447 5445 5443 5441 5439 5437 5435 5433 5431 5428 5426 5423 5421 5419 5416 5414 5411 5408 5406 5404 5402 5400 5398 5397 5396 5395 5393 5392 5391 5394 5394 5395 5396 5398 5400 5402 5405 5407 5409
5444 5442 5440 5438 5436 5434 5432 5430 5428 5426 5423 5421 5419 5417 5414 5412 5409 5407 5404 5401 5398 5396 5393 5391 5389 5387 5385 5384 5383 5382 5380 5379 5379 5380 5381 5381 5382 5384 5386 5388 5391 5393 5395
5432 5431 5429 5427 5425 5423 5421 5419 5417 5414 5412 5409 5406 5404 5402 5399 5396 5394 5391 5388 5386 5383 5381 5379 5377 5375 5373 5371 5370 5369 5368 5368 5367 5367 5368 5368 5370 5371 5373 5375 5376 5378 5380
5419 5418 5417 5415 5413 5411 5409 5407 5404 5402 5399 5396 5394 5391 5389 5387 5384 5381 5379 5376 5373 5371 5369 5367 5365 5364 5362 5361 5360 5358 5357 5356 5355 5355 5356 5356 5357 5358 5360 5361 5363 5364 5366
5406 5405 5404 5402 5400 5398 5396 5394 5391 5389 5386 5384 5381 5379 5376 5374 5372 5370 5367 5364 5361 5358 5356 5355 5354 5353 5352 5351 5350 5348 5347 5345 5344 5344 5344 5345 5345 5345 5346 5348 5349 5350 5352
5393 5392 5391 5389 5387 5385 5383 5380 5378 5375 5373 5370 5368 5366 5364 5362 5361 5359 5356 5352 5350 5347 5345 5344 5343 5342 5342 5341 5340 5339 5337 5335 5334 5333 5334 5333 5334 5333 5334 5335 5335 5336 5338
5380 5379 5377 5376 5374 5372 5369 5366 5364 5362 5359 5357 5355 5353 5351 5350 5349 5347 5344 5341 5338 5336 5334 5333 5332 5331 5330 5329 5328 5327 5326 5325 5325 5323 5323 5322 5322 5323 5323 5323 5323 5322 5323
5367 5366 5364 5362 5361 5358 5356 5353 5350 5348 5346 5344 5342 5340 5338 5337 5335 5334 5331 5329 5327 5325 5323 5322 5320 5320 5319 5318 5317 5316 5315 5314 5314 5313 5313 5312 5312 5311 5311 5310 5310 5311 5312
5354 5352 5351 5349 5347 5345 5342 5340 5337 5335 5333 5330 5329 5326 5324 5323 5322 5320 5319 5316 5314 5313 5312 5311 5310 5309 5309 5308 5306 5304 5303 5302 5302 5302 5302 5301 5300 5300 5299 5298 5297 5298 5299
5340 5339 5337 5336 5334 5331 5329 5326 5324 5322 5319 5317 5315 5312 5310 5309 5308 5307 5306 5304 5302 5301 5300 5300 5299 5298 5298 5297 5295 5293 5291 5291 5290 5289 5289 5289 5288 5286 5285 5284 5283 5283 5284
5327 5326 5324 5322 5320 5317 5315 5312 5310 5308 5305 5303 5301 5299 5297 5296 5295 5294 5293 5291 5290 5289 5288 5288 5287 5287 5286 5285 5284 5282 5281 5280 5278 5277 5276 5275 5274 5273 5272 5271 5270 5269 5270
5313 5312 5310 5308 5306 5303 5301 5298 5295 5293 5290 5288 5286 5284 5283 5282 5281 5280 5280 5280 5279 5277 5276 5275 5275 5275 5274 5273 5272 5271 5270 5268 5265 5264 5263 5262 5261 5260 5259 5258 5258 5257 5257
5299 5297 5295 5293 5291 5289 5287 5284 5281 5278 5276 5274 5272 5270 5269 5269 5267 5267 5267 5267 5266 5265 5264 5264 5263 5262 5261 5260 5259 5258 5256 5254 5253 5251 5249 5249 5248 5247 5246 5245 5245 5245 5244
5284 5282 5280 5278 5276 5274 5272 5270 5268 5265 5263 5261 5259 5258 5256 5255 5254 5253 5253 5253 5253 5253 5251 5250 5250 5249 5247 5247 5246 5244 5243 5241 5240 5238 5237 5236 5234 5233 5232 5231 5231 5231 5231
5270 5268 5266 5264 5262 5260 5258 5256 5255 5253 5252 5250 5248 5246 5244 5243 5244 5244 5242 5241 5240 5239 5238 5237 5236 5234 5234 5233 5231 5230 5229 5227 5226 5225 5223 5222 5221 5220 5219 5218 5217 5216 5216
5256 5254 5252 5250 5248 5246 5245 5243 5242 5241 5241 5239 5238 5236 5235 5235 5234 5233 5232 5231 5230 5229 5226 5224 5223 5221 5220 5219 5218 5217 5215 5214 5213 5212 5210 5209 5208 5207 5206 5205 5204 5204 5204
5242 5240 5239 5237 5235 5233 5232 5231 5229 5228 5228 5227 5226 5225 5225 5224 5223 5222 5221 5219 5218 5216 5212 5210 5209 5207 5206 5205 5204 5203 5202 5201 5200 5198 5198 5196 5195 5194 5193 5193 5192 5192 5193
5230 5229 5227 5225 5223 5221 5220 5218 5216 5215 5214 5212 5212 5212 5212 5212 5210 5209 5208 5206 5203 5202 5199 5197 5196 5194 5193 5192 5191 5189 5188 5188 5186 5185 5185 5184 5183 5182 5181 5180 5180 5180 5181
5218 5217 5215 5213 5211 5209 5207 5205 5203 5202 5200 5199 5198 5198 5198 5198 5196 5195 5194 5192 5190 5188 5186 5185 5183 5182 5180 5179 5178 5176 5175 5174 5174 5173 5172 5172 5171 5170 5170 5169 5169 5170 5170
5206 5206 5204 5201 5199 5197 5195 5193 5191 5189 5187 5186 5185 5185 5184 5183 5181 5180 5179 5178 5176 5175 5173 5172 5170 5169 5167 5166 5165 5164 5163 5162 5162 5161 5161 5160 5160 5159 5159 5159 5159 5159 5160
5194 5193 5192 5189 5186 5184 5182 5180 5178 5177 5175 5174 5173 5172 5174 5171 5169 5167 5165 5164 5163 5161 5160 5159 5158 5157 5155 5154 5153 5152 5151 5151 5151 5150 5150 5149 5149 5149 5150 5150 5150 5150 5150
5183 5180 5178 5176 5174 5172 5170 5168 5166 5164 5163 5161 5161 5160 5160 5158 5156 5154 5153 5151 5150 5149 5147 5146 5146 5145 5144 5143 5142 5141 5141 5140 5140 5139 5139 5140 5140 5140 5140 5140 5141 5140 5141
5172 5169 5167 5165 5163 5162 5160 5157 5155 5153 5151 5150 5149 5148 5147 5145 5144 5142 5141 5140 5138 5137 5136 5135 5135 5134 5133 5133 5132 5131 5131 5131 5131 5130 5130 5131 5131 5131 5132 5132 5132 5132 5132
5161 5159 5156 5154 5152 5150 5148 5146 5144 5142 5140 5139 5138 5137 5135 5134 5132 5131 5130 5128 5127 5126 5125 5125 5124 5124 5124 5123 5123 5123 5123 5123 5123 5123 5123 5123 5124 5124 5125 5125 5125 5125 5125
5151 5148 5146 5143 5141 5139 5137 5135 5133 5132 5130 5129 5128 5126 5125 5123 5122 5120 5119 5118 5117 5116 5116 5115 5114 5114 5114 5114 5114 5115 5115 5116 5117 5117 5118 5118 5118 5118 5118 5118 5118 5118 5118
5141 5138 5136 5133 5131 5129 5127 5125 5124 5122 5120 5119 5118 5116 5114 5113 5112 5111 5109 5108 5107 5107 5106 5106 5106 5106 5106 5106 5107 5108 5109 5111 5112 5112 5112 5113 5113 5113 5113 5113 5113 5113 5113